1 Minute Report
Date Time Wind Direction Wind Speed Wind Gust Wind Variable Altimeter Temperature Dewpoint Relative Humidity Visibility Ceiling Precip Present Weather Density Alt Wind Chill Heat Index
18/02/21 17:14 360 11 N/A N/A 30.48 35(F), 2(C) 33(F), 1(C) 93% 10 OVC011 N/A Light Rain N/A 27 F N/A 80
18/02/21 17:13 360 11 N/A N/A 30.48 35(F), 2(C) 33(F), 1(C) 93% 10 OVC011 N/A Light Rain N/A 27 F N/A 79
18/02/21 17:12 360 11 N/A N/A 30.48 35(F), 2(C) 33(F), 1(C) 93% 10 BKN011 OVC014 N/A Light Rain N/A 27 F N/A 78
18/02/21 17:11 350 09 N/A N/A 30.48 35(F), 2(C) 33(F), 1(C) 93% 10 BKN011 OVC014 N/A Light Rain N/A 28 F N/A 77
18/02/21 17:10 360 08 N/A N/A 30.48 35(F), 2(C) 34(F), 1(C) 93% 10 BKN011 OVC014 N/A Light Rain N/A 28 F N/A 76
18/02/21 17:09 360 09 N/A N/A 30.48 35(F), 2(C) 34(F), 1(C) 93% 10 BKN011 OVC014 N/A Light Rain N/A 28 F N/A 75
18/02/21 17:08 360 08 N/A N/A 30.48 35(F), 2(C) 34(F), 1(C) 93% 10 BKN011 OVC014 N/A Light Rain N/A 28 F N/A 74
18/02/21 17:07 360 07 N/A N/A 30.48 35(F), 2(C) 33(F), 1(C) 93% 10 BKN011 OVC014 N/A Light Rain N/A 29 F N/A 73
18/02/21 17:06 360 07 N/A N/A 30.47 35(F), 2(C) 33(F), 1(C) 93% 10 BKN011 OVC014 N/A Light Rain N/A 29 F N/A 72
18/02/21 17:05 360 08 N/A N/A 30.47 35(F), 2(C) 33(F), 1(C) 93% 10 BKN011 OVC014 N/A N/A N/A 28 F N/A 71
18/02/21 17:04 010 08 N/A N/A 30.47 35(F), 2(C) 33(F), 1(C) 93% 10 BKN011 OVC014 N/A N/A N/A 28 F N/A 70
18/02/21 17:03 010 07 N/A N/A 30.47 35(F), 2(C) 33(F), 1(C) 93% 10 OVC011 N/A N/A N/A 29 F N/A 69
18/02/21 17:02 010 08 N/A N/A 30.47 35(F), 2(C) 33(F), 1(C) 93% 10 BKN011 OVC014 N/A N/A N/A 28 F N/A 68
18/02/21 17:01 020 09 N/A N/A 30.47 35(F), 2(C) 33(F), 1(C) 93% 10 OVC011 N/A Light Drizzle N/A 28 F N/A 67
18/02/21 17:00 020 10 N/A N/A 30.46 35(F), 2(C) 33(F), 1(C) 93% 10 OVC011 N/A Light Drizzle N/A 27 F N/A 66
18/02/21 16:59 010 09 N/A N/A 30.46 35(F), 2(C) 33(F), 1(C) 93% 10 OVC011 N/A Light Drizzle N/A 28 F N/A 65
18/02/21 16:58 360 10 N/A N/A 30.46 35(F), 2(C) 33(F), 1(C) 93% 10 OVC011 N/A Light Drizzle N/A 27 F N/A 64
18/02/21 16:57 010 10 N/A N/A 30.46 35(F), 2(C) 33(F), 1(C) 93% 10 OVC011 N/A Light Drizzle N/A 27 F N/A 63
18/02/21 16:56 010 09 N/A N/A 30.46 35(F), 2(C) 33(F), 1(C) 93% 10 OVC011 N/A Light Drizzle N/A 28 F N/A 62
18/02/21 16:55 020 09 N/A N/A 30.46 35(F), 2(C) 33(F), 1(C) 93% 10 OVC011 N/A Light Drizzle N/A 28 F N/A 61
18/02/21 16:54 020 10 N/A N/A 30.46 35(F), 2(C) 33(F), 1(C) 93% 10 OVC011 N/A Light Drizzle N/A 27 F N/A 60
18/02/21 16:53 020 10 N/A N/A 30.46 35(F), 2(C) 33(F), 1(C) 93% 10 OVC011 N/A Light Drizzle N/A 27 F N/A 59
18/02/21 16:52 030 09 N/A N/A 30.46 35(F), 2(C) 33(F), 1(C) 93% 10 OVC011 N/A Light Drizzle N/A 28 F N/A 58
18/02/21 16:51 030 08 N/A N/A 30.46 35(F), 2(C) 33(F), 1(C) 93% 10 OVC011 N/A Light Drizzle N/A 28 F N/A 57
18/02/21 16:50 020 08 N/A N/A 30.46 35(F), 2(C) 33(F), 1(C) 93% 10 OVC011 N/A Light Drizzle N/A 28 F N/A 56
18/02/21 16:49 010 08 N/A N/A 30.47 35(F), 2(C) 33(F), 1(C) 93% 10 OVC011 N/A Light Drizzle N/A 28 F N/A 55
18/02/21 16:48 010 09 N/A N/A 30.48 35(F), 2(C) 33(F), 1(C) 93% 10 OVC011 N/A Light Drizzle N/A 28 F N/A 54
18/02/21 16:47 360 09 N/A N/A 30.48 35(F), 2(C) 33(F), 1(C) 93% 10 OVC011 N/A Light Rain N/A 28 F N/A 53
18/02/21 16:46 360 09 N/A N/A 30.48 35(F), 2(C) 33(F), 1(C) 93% 10 OVC011 N/A Rain N/A 28 F N/A 52
18/02/21 16:45 360 08 N/A N/A 30.47 35(F), 2(C) 33(F), 1(C) 93% 10 OVC011 N/A Rain N/A 28 F N/A 51
18/02/21 16:44 350 08 N/A N/A 30.47 35(F), 2(C) 33(F), 1(C) 93% 10 OVC013 N/A Rain N/A 28 F N/A 50
18/02/21 16:43 350 08 N/A N/A 30.48 35(F), 2(C) 33(F), 1(C) 93% 10 SCT008 OVC013 N/A Rain N/A 28 F N/A 49
18/02/21 16:42 350 08 N/A N/A 30.48 35(F), 2(C) 33(F), 1(C) 93% 10 SCT008 OVC013 N/A Rain N/A 28 F N/A 48
18/02/21 16:41 350 09 N/A N/A 30.48 35(F), 2(C) 33(F), 1(C) 93% 10 SCT008 OVC013 N/A Rain N/A 28 F N/A 47
18/02/21 16:40 350 08 N/A N/A 30.48 35(F), 2(C) 33(F), 1(C) 93% 10 SCT008 OVC011 N/A Rain N/A 28 F N/A 46
18/02/21 16:39 350 08 N/A N/A 30.48 35(F), 2(C) 33(F), 1(C) 93% 10 OVC011 N/A Light Rain N/A 28 F N/A 45
18/02/21 16:38 360 10 N/A N/A 30.48 35(F), 2(C) 33(F), 1(C) 93% 10 OVC011 N/A Light Rain N/A 27 F N/A 44
18/02/21 16:37 010 10 N/A N/A 30.48 35(F), 2(C) 33(F), 1(C) 93% 10 SCT009 OVC013 N/A Rain N/A 27 F N/A 43
18/02/21 16:36 010 10 N/A N/A 30.48 35(F), 2(C) 33(F), 1(C) 93% 10 SCT009 OVC013 N/A Rain N/A 27 F N/A 42
18/02/21 16:35 010 10 N/A N/A 30.48 35(F), 2(C) 33(F), 1(C) 93% 10 SCT009 BKN013 OVC035 N/A Rain N/A 27 F N/A 41
18/02/21 16:34 360 11 N/A N/A 30.48 35(F), 2(C) 33(F), 1(C) 93% 10 SCT009 BKN013 OVC049 N/A Drizzle N/A 27 F N/A 40
18/02/21 16:33 360 10 N/A N/A 30.48 35(F), 2(C) 33(F), 1(C) 93% 10 SCT009 BKN013 OVC049 N/A Drizzle N/A 27 F N/A 39
18/02/21 16:32 360 09 N/A N/A 30.48 35(F), 2(C) 33(F), 1(C) 93% 10 SCT009 BKN013 OVC049 N/A Drizzle N/A 28 F N/A 38
18/02/21 16:31 360 10 N/A N/A 30.47 35(F), 2(C) 33(F), 1(C) 93% 10 BKN011 BKN035 OVC049 N/A Drizzle N/A 27 F N/A 37
18/02/21 16:30 360 09 N/A N/A 30.47 35(F), 2(C) 33(F), 1(C) 93% 10 BKN011 BKN035 OVC049 N/A Drizzle N/A 28 F N/A 36
18/02/21 16:29 360 09 N/A N/A 30.47 35(F), 2(C) 33(F), 1(C) 93% 10 BKN011 BKN035 OVC049 N/A Drizzle N/A 28 F N/A 35
18/02/21 16:28 360 08 N/A N/A 30.47 35(F), 2(C) 33(F), 1(C) 93% 10 BKN011 BKN035 OVC049 N/A Drizzle N/A 28 F N/A 34
18/02/21 16:27 010 08 N/A N/A 30.47 35(F), 2(C) 33(F), 1(C) 93% 10 BKN011 BKN035 OVC049 N/A Drizzle N/A 28 F N/A 33
18/02/21 16:26 010 08 N/A N/A 30.47 35(F), 2(C) 33(F), 1(C) 93% 10 BKN011 BKN035 OVC049 N/A Drizzle N/A 28 F N/A 32
18/02/21 16:25 010 07 N/A N/A 30.47 35(F), 2(C) 33(F), 1(C) 93% 10 BKN011 BKN035 OVC049 N/A Drizzle N/A 29 F N/A 31
18/02/21 16:24 360 07 N/A N/A 30.47 35(F), 2(C) 33(F), 1(C) 93% 10 BKN011 BKN035 OVC075 N/A Drizzle N/A 29 F N/A 30
18/02/21 16:23 360 09 N/A N/A 30.47 35(F), 2(C) 33(F), 1(C) 93% 10 BKN011 BKN035 OVC075 N/A Drizzle N/A 28 F N/A 29
18/02/21 16:22 360 10 N/A N/A 30.47 35(F), 2(C) 33(F), 1(C) 93% 10 BKN011 BKN035 OVC075 N/A Drizzle N/A 27 F N/A 28
18/02/21 16:21 360 09 N/A N/A 30.46 35(F), 2(C) 33(F), 1(C) 93% 10 BKN011 BKN035 OVC075 N/A Drizzle N/A 28 F N/A 27
18/02/21 16:20 010 08 N/A N/A 30.46 35(F), 2(C) 33(F), 1(C) 93% 10 SCT008 BKN011 OVC075 N/A Drizzle N/A 28 F N/A 26
18/02/21 16:19 010 09 N/A N/A 30.46 35(F), 2(C) 33(F), 1(C) 93% 10 BKN008 BKN035 OVC075 N/A Drizzle N/A 28 F N/A 25
18/02/21 16:18 010 09 N/A N/A 30.46 34(F), 1(C) 33(F), 1(C) 100% 10 BKN008 BKN035 OVC075 N/A Drizzle N/A 27 F N/A 24
18/02/21 16:17 010 07 N/A N/A 30.46 35(F), 2(C) 33(F), 1(C) 93% 10 BKN008 BKN035 OVC050 N/A Drizzle N/A 29 F N/A 23
18/02/21 16:16 010 07 N/A N/A 30.46 35(F), 2(C) 33(F), 1(C) 93% 10 BKN008 BKN035 OVC050 N/A Drizzle N/A 29 F N/A 22
18/02/21 16:15 010 08 N/A N/A 30.46 35(F), 2(C) 33(F), 1(C) 93% 10 BKN008 BKN035 OVC050 N/A Drizzle N/A 28 F N/A 21
18/02/21 16:14 010 08 N/A N/A 30.46 35(F), 2(C) 33(F), 1(C) 93% 10 BKN008 BKN035 OVC050 N/A Drizzle N/A 28 F N/A 20
18/02/21 16:13 020 07 N/A N/A 30.46 35(F), 2(C) 33(F), 1(C) 93% 10 BKN008 OVC050 N/A Drizzle N/A 29 F N/A 19
18/02/21 16:12 010 06 N/A N/A 30.46 35(F), 2(C) 33(F), 1(C) 93% 10 BKN008 OVC050 N/A Drizzle N/A 30 F N/A 18
18/02/21 16:11 010 06 N/A N/A 30.45 35(F), 2(C) 33(F), 1(C) 93% 10 BKN008 OVC050 N/A Drizzle N/A 30 F N/A 17
18/02/21 16:10 360 06 N/A N/A 30.45 35(F), 2(C) 33(F), 1(C) 93% 10 BKN008 OVC048 N/A Rain N/A 30 F N/A 16
18/02/21 16:09 360 06 N/A N/A 30.45 35(F), 2(C) 33(F), 1(C) 93% 10 BKN008 OVC048 N/A Rain N/A 30 F N/A 15
18/02/21 16:08 010 06 N/A N/A 30.45 35(F), 2(C) 33(F), 1(C) 93% 10 BKN008 OVC048 N/A Rain N/A 30 F N/A 14
18/02/21 16:07 010 08 N/A N/A 30.45 35(F), 2(C) 33(F), 1(C) 93% 10 BKN008 OVC048 N/A Rain N/A 28 F N/A 13
18/02/21 16:06 010 09 N/A N/A 30.45 35(F), 2(C) 33(F), 1(C) 93% 10 BKN008 OVC048 N/A Rain N/A 28 F N/A 12
18/02/21 16:05 010 09 N/A N/A 30.45 35(F), 2(C) 33(F), 1(C) 93% 10 BKN008 OVC048 N/A Rain N/A 28 F N/A 11
18/02/21 16:04 360 09 N/A N/A 30.45 35(F), 2(C) 34(F), 1(C) 93% 10 BKN008 OVC048 N/A Rain N/A 28 F N/A 10
18/02/21 16:03 360 09 N/A N/A 30.44 35(F), 2(C) 33(F), 1(C) 93% 10 BKN008 BKN042 OVC048 N/A Rain N/A 28 F N/A 9
18/02/21 16:02 360 09 N/A N/A 30.44 35(F), 2(C) 33(F), 1(C) 93% 10 BKN010 BKN042 OVC048 N/A Light Rain N/A 28 F N/A 8
18/02/21 16:01 360 08 N/A N/A 30.44 34(F), 1(C) 33(F), 1(C) 100% 10 BKN010 BKN042 OVC048 N/A Light Rain N/A 27 F N/A 7
18/02/21 16:00 010 08 N/A N/A 30.44 34(F), 1(C) 33(F), 1(C) 100% 10 BKN010 BKN042 OVC048 P0001 Light Rain N/A 27 F N/A 6
18/02/21 15:59 010 08 N/A N/A 30.44 34(F), 1(C) 33(F), 1(C) 100% 10 BKN010 BKN042 OVC048 P0001 Light Rain N/A 27 F N/A 5
18/02/21 15:58 010 07 N/A N/A 30.44 34(F), 1(C) 33(F), 1(C) 100% 10 BKN010 BKN042 OVC048 P0001 Light Rain N/A 28 F N/A 4
18/02/21 15:57 010 07 N/A N/A 30.44 34(F), 1(C) 33(F), 1(C) 100% 10 BKN010 BKN042 OVC048 P0001 Light Rain N/A 28 F N/A 3
18/02/21 15:56 020 07 N/A N/A 30.43 34(F), 1(C) 33(F), 1(C) 100% 10 BKN010 OVC042 P0001 Light Rain N/A 28 F N/A 2
18/02/21 15:55 030 06 N/A N/A 30.43 34(F), 1(C) 33(F), 1(C) 100% 10 OVC010 P0001 Light Rain N/A 29 F N/A 1
18/02/21 15:54 040 06 N/A N/A 30.43 34(F), 1(C) 33(F), 1(C) 100% 10 OVC010 P0001 Light Rain N/A 29 F N/A 0
18/02/21 15:53 030 06 N/A N/A 30.44 34(F), 1(C) 33(F), 1(C) 100% 10 OVC010 P0001 Light Rain N/A 29 F N/A 8999
18/02/21 15:52 020 08 N/A N/A 30.44 34(F), 1(C) 33(F), 1(C) 100% 10 OVC010 P0001 Light Rain N/A 27 F N/A 8998
18/02/21 15:51 010 09 N/A N/A 30.44 34(F), 1(C) 33(F), 1(C) 100% 10 OVC010 P0001 Light Rain N/A 27 F N/A 8997
18/02/21 15:50 010 09 N/A N/A 30.45 34(F), 1(C) 33(F), 1(C) 100% 10 OVC010 P0001 Light Rain N/A 27 F N/A 8996
18/02/21 15:49 360 09 N/A N/A 30.45 34(F), 1(C) 33(F), 1(C) 100% 10 OVC010 P0001 Light Rain N/A 27 F N/A 8995
18/02/21 15:48 360 10 N/A N/A 30.45 34(F), 1(C) 33(F), 1(C) 100% 10 OVC010 P0001 Light Rain N/A 26 F N/A 8994
18/02/21 15:47 360 09 N/A N/A 30.45 34(F), 1(C) 33(F), 1(C) 100% 10 OVC010 P0001 Light Rain N/A 27 F N/A 8993
18/02/21 15:46 360 09 N/A N/A 30.44 34(F), 1(C) 33(F), 1(C) 100% 10 OVC010 P0001 Light Rain N/A 27 F N/A 8992
18/02/21 15:45 360 09 N/A N/A 30.44 34(F), 1(C) 33(F), 1(C) 100% 10 OVC010 P0001 Light Rain N/A 27 F N/A 8991
18/02/21 15:44 360 09 N/A N/A 30.44 34(F), 1(C) 33(F), 1(C) 100% 10 OVC010 P0001 Light Rain N/A 27 F N/A 8990
18/02/21 15:43 360 09 N/A N/A 30.44 34(F), 1(C) 33(F), 1(C) 100% 10 OVC010 P0001 Light Rain N/A 27 F N/A 8989
18/02/21 15:42 360 09 N/A N/A 30.44 34(F), 1(C) 33(F), 1(C) 100% 10 OVC010 P0001 Light Rain N/A 27 F N/A 8988
18/02/21 15:41 360 09 N/A N/A 30.44 34(F), 1(C) 33(F), 1(C) 100% 10 OVC010 P0001 Light Rain N/A 27 F N/A 8987
18/02/21 15:40 010 09 N/A N/A 30.44 34(F), 1(C) 33(F), 1(C) 100% 10 OVC010 P0001 Light Rain N/A 27 F N/A 8986
18/02/21 15:39 360 10 N/A N/A 30.44 34(F), 1(C) 33(F), 1(C) 100% 10 OVC010 P0001 Light Rain N/A 26 F N/A 8985
18/02/21 15:38 360 10 N/A N/A 30.44 34(F), 1(C) 33(F), 1(C) 100% 10 OVC010 P0001 Light Rain N/A 26 F N/A 8984
18/02/21 15:37 360 08 N/A N/A 30.44 34(F), 1(C) 33(F), 1(C) 100% 10 OVC010 P0001 Light Rain N/A 27 F N/A 8983
18/02/21 15:36 010 08 N/A N/A 30.44 34(F), 1(C) 33(F), 1(C) 100% 10 OVC010 P0001 Light Rain N/A 27 F N/A 8982
18/02/21 15:35 010 09 N/A N/A 30.44 34(F), 1(C) 33(F), 1(C) 100% 10 OVC010 P0001 Light Rain N/A 27 F N/A 8981
18/02/21 15:34 010 08 N/A N/A 30.44 34(F), 1(C) 33(F), 1(C) 100% 10 OVC010 P0001 Light Rain N/A 27 F N/A 8980
18/02/21 15:33 360 08 N/A N/A 30.44 34(F), 1(C) 33(F), 1(C) 100% 10 OVC010 P0001 Light Rain N/A 27 F N/A 8979
18/02/21 15:32 360 08 N/A N/A 30.44 34(F), 1(C) 33(F), 1(C) 100% 10 OVC010 P0001 Light Rain N/A 27 F N/A 8978
18/02/21 15:31 360 07 N/A N/A 30.44 34(F), 1(C) 33(F), 1(C) 100% 10 OVC010 P0001 Rain N/A 28 F N/A 8977
18/02/21 15:30 360 07 N/A N/A 30.44 34(F), 1(C) 33(F), 1(C) 100% 10 OVC010 P0001 Rain N/A 28 F N/A 8976
18/02/21 15:29 360 08 N/A N/A 30.44 34(F), 1(C) 33(F), 1(C) 100% 10 OVC010 P0001 Rain N/A 27 F N/A 8975
18/02/21 15:28 350 08 N/A N/A 30.44 34(F), 1(C) 33(F), 1(C) 100% 10 OVC010 P0001 Drizzle N/A 27 F N/A 8974
18/02/21 15:27 350 08 N/A N/A 30.44 34(F), 1(C) 33(F), 1(C) 100% 10 OVC010 P0001 Drizzle N/A 27 F N/A 8973
18/02/21 15:26 350 08 N/A N/A 30.44 34(F), 1(C) 33(F), 1(C) 100% 10 OVC010 P0001 Drizzle N/A 27 F N/A 8972
18/02/21 15:25 350 08 N/A N/A 30.44 34(F), 1(C) 33(F), 1(C) 100% 7 OVC010 P0001 Drizzle N/A 27 F N/A 8971
18/02/21 15:24 340 09 N/A N/A 30.45 34(F), 1(C) 33(F), 1(C) 100% 7 OVC010 P0001 Drizzle N/A 27 F N/A 8970
18/02/21 15:23 340 08 N/A N/A 30.45 34(F), 1(C) 33(F), 1(C) 100% 7 OVC010 P0001 Rain N/A 27 F N/A 8969
18/02/21 15:22 350 07 N/A N/A 30.45 34(F), 1(C) 33(F), 1(C) 100% 7 OVC010 P0001 Rain N/A 28 F N/A 8968
18/02/21 15:21 350 08 N/A N/A 30.44 34(F), 1(C) 33(F), 1(C) 100% 7 OVC010 P0001 Rain N/A 27 F N/A 8967
18/02/21 15:20 350 08 N/A N/A 30.44 34(F), 1(C) 33(F), 1(C) 100% 5 OVC010 P0001 Rain N/A 27 F N/A 8966
18/02/21 15:19 340 09 N/A N/A 30.44 34(F), 1(C) 33(F), 1(C) 100% 5 OVC010 P0001 Rain N/A 27 F N/A 8965
18/02/21 15:18 340 09 N/A N/A 30.44 34(F), 1(C) 33(F), 1(C) 100% 5 OVC010 P0001 Rain N/A 27 F N/A 8964
18/02/21 15:17 340 09 N/A N/A 30.44 34(F), 1(C) 33(F), 1(C) 100% 5 OVC010 P0001 Rain N/A 27 F N/A 8963
18/02/21 15:16 350 09 N/A N/A 30.44 34(F), 1(C) 33(F), 1(C) 100% 5 OVC010 P0001 Rain N/A 27 F N/A 8962
18/02/21 15:15 350 10 N/A N/A 30.44 34(F), 1(C) 33(F), 1(C) 100% 4 OVC010 P0001 Light Rain N/A 26 F N/A 8961
18/02/21 15:14 350 10 N/A N/A 30.44 34(F), 1(C) 33(F), 1(C) 100% 4 BKN010 OVC013 P0001 Light Rain N/A 26 F N/A 8960